Погода в Лазарцево

Россия / Ярославская область     57°05′19″N   39°35′11″E
темп.,
°C
ветер,
м/с
пор.,
м/с
влажн.,
%
обл.,
%
осадки,
мм/ч
давл.,
гПа
погр.,
м
8 мая, сб
сб800:00+6ююв4871100 0.0 1013127
03:00+5ю41174100 0.0 1013197
06:00+7ююв5127498 0.0 1012307
09:00+10ююв61272100 0.0 1011719
12:00+10ююв71481100 0.3 10101314
15:00+9юв101789100 4.6 10081115
18:00+9юв91789100 3.8 10061437
21:00+8юв71593100 9.8 1003908
9 мая, вс
вс900:00+9юв61396100 2.9 1000794
03:00+9ю3697100 3.1 1001299
06:00+8зсз2398100 0.4 1001181
09:00+3зсз71196100 2.1 1006543
12:00+2зсз61297100 1.3 1009652
15:00+4сз71597100 2.5 1012959
18:00+8ссз71471100 0.3 10151272
21:00+4зсз34855 0.3 101845
10 мая, пн
пн1000:00+2сз49905 0.0 1021146
03:00+1сз49890 0.0 1024145
06:00+2сз37820 0.0 1027182
09:00+8ссз34603 0.0 1028496
12:00+12ссз23465 0.0 10291171
15:00+13с12435 0.0 10291341
18:00+13всв11515 0.0 1029485
21:00+8ююв226212 0.0 103012
11 мая, вт
вт1100:00+7ююв22645 0.0 103110
03:00+5ююв11715 0.0 103210
06:00+7юв22725 0.0 103247
09:00+12юв23596 0.0 1033433
12:00+16вюв34509 0.0 1032961
15:00+17в34465 0.0 10301218
18:00+17в35615 0.0 1030228
21:00+11вюв45700 0.0 103063
12 мая, ср
ср1200:00+9вюв34755 0.0 103049
03:00+7вюв34795 0.0 103045
06:00+9в37810 0.0 1030151
09:00+15в47630 0.0 1029452
12:00+19вюв56560 0.0 1028874
15:00+21в56546 0.0 10261282
18:00+20в477090 0.1 1026254
21:00+15в4108497 0.1 1026159